#timestamp,LO_Frequency,Hit,StdDev 
1589922015.6,286046999.3,N
1589922035.4,286046998.4,N
1589922055.2,286046997.6,N
1589922075.1,286046995.8,Y
1589922076.0,286046995.8,P
1589922095.8,286046997.3,N
1589922115.7,286046996.9,N
1589922135.5,286046999.2,N
1589922155.3,286046999.2,N
1589922175.2,286046999.2,N
1589922195.0,286047000.7,N
1589922195.9,286047000.7,N
1589922215.7,286046998.7,N
1589922235.6,286047000.8,N
1589922255.4,286046998.1,N
1589922275.3,286046998.6,N
1589922295.1,286047000.1,N
1589922296.0,286047000.1,N
1589922315.8,286047002.6,N
1589922335.7,286047001.5,N
1589922355.5,286047003.8,N
1589922375.3,286047002.0,N
1589922395.2,286047003.9,N
1589922415.0,286047005.2,N
1589922415.9,286047005.2,N
1589922435.8,286047005.1,N
1589922455.6,286047007.2,N
1589922475.4,286047007.4,N
1589922495.3,286047008.4,N
1589922515.1,286047007.8,N
1589922535.8,286047009.7,N
1589922555.7,286047010.3,N
1589922575.5,286047008.6,N
1589922595.3,286047008.4,N
1589922615.2,286047009.5,N
1589922635.0,286047009.4,N
1589922635.9,286047009.4,N
1589922655.8,286047010.8,N
1589922675.6,286047007.7,N
1589922695.4,286047008.5,N
1589922715.3,286047012.3,Y
1589922735.1,286047005.0,P
1589922755.9,286047005.8,P
1589922775.7,286047005.2,P
1589922795.5,286047005.3,Y
1589922815.4,286047001.0,P
1589922835.2,286047000.8,N
1589922855.0,286047000.3,N
1589922855.9,286047000.3,N
1589922875.8,286047000.2,N
1589922895.6,286047002.2,N
1589922915.5,286047002.5,N
1589922935.3,286047002.4,N
1589922955.1,286047002.4,N
1589922975.9,286046999.9,N
1589922995.7,286046999.8,N
1589923015.5,286047001.1,N
1589923035.4,286047000.9,N
1589923055.2,286047001.0,N
1589923075.1,286046998.2,N
1589923076.0,286046998.2,N
1589923095.8,286047000.4,N
1589923115.6,286047001.9,N
1589923135.5,286047002.0,N
1589923155.3,286047002.2,N
1589923175.2,286047002.1,N
1589923195.9,286047002.5,N
1589923215.7,286047002.8,N
1589923235.6,286047001.3,N
1589923255.4,286047002.6,N
1589923275.2,286047002.8,N
1589923295.1,286047004.2,N
1589923296.0,286047004.2,N
1589923315.8,286047003.8,N
1589923335.7,286047003.4,N
1589923355.5,286047003.8,N
1589923375.3,286047003.2,N
1589923395.2,286047004.1,N
1589923415.9,286047001.4,N
1589923435.7,286046999.8,N
1589923455.6,286047002.2,N
1589923475.4,286047000.0,N
1589923495.2,286047002.6,N
1589923515.1,286047002.2,N
1589923516.0,286047002.2,N
1589923535.8,286047002.6,N
1589923555.7,286047000.2,N
1589923575.5,286047000.4,N
1589923595.3,286046998.2,N
1589923615.2,286046999.0,N
1589923635.0,286046999.4,N
1589923635.9,286046999.4,N
1589923655.7,286046996.7,N
1589923675.6,286046997.3,N
1589923695.4,286046997.3,N
1589923715.3,286046996.7,N
1589923735.1,286047001.2,N
1589923736.0,286047001.2,N
1589923755.8,286047000.1,N
1589923775.7,286046998.8,N
1589923795.5,286047001.1,N
1589923815.3,286046998.7,N
1589923835.2,286046998.2,N
1589923855.0,286047000.8,N
1589923855.9,286047000.8,N
1589923875.8,286047000.1,N
1589923895.6,286046999.9,N
1589923915.4,286047000.0,N
1589923935.3,286046998.9,N
1589923955.1,286046998.8,N
1589923975.9,286046999.2,N
1589923995.7,286046999.1,N
1589924015.5,286046997.8,N
1589924035.4,286046997.5,N
1589924055.2,286046997.8,N
1589924075.0,286046998.0,N
1589924075.9,286046998.0,N
1589924095.8,286046997.6,N
1589924115.6,286046995.2,Y
1589924135.5,286046997.6,P
1589924155.3,286046996.8,P
1589924175.1,286046996.9,P
1589924195.9,286046997.4,Y
1589924215.7,286047001.2,P
1589924235.6,286047001.2,N
1589924255.4,286046998.7,N
1589924275.2,286046998.1,N
1589924295.1,286046998.1,N
1589924296.0,286046998.1,N
1589924315.8,286046998.9,N
1589924335.7,286046997.2,N
1589924355.5,286046999.2,N
1589924375.3,286046999.2,N
1589924395.2,286046998.4,N
1589924415.0,286046999.6,N
1589924415.9,286046999.6,N
1589924435.7,286046999.6,N
1589924455.6,286046999.6,N
1589924475.4,286046997.4,N
1589924525.3,286046996.5,E
1589924535.2,286047001.2,N
1589924555.0,286047001.5,P
1589924556.0,286047001.5,P
1589924575.8,286047002.1,Y
1589924595.6,286047000.8,P
1589924615.5,286047002.3,P
1589924635.3,286047002.6,P
1589924655.1,286047002.2,Y
1589924675.9,286046999.1,P
1589924695.7,286046999.3,N
1589924715.6,286046999.3,N
1589924735.4,286046997.0,N
1589924755.2,286046997.1,N
1589924775.1,286046996.7,N
1589924776.0,286046996.7,N
1589924795.8,286046996.6,N
1589924815.6,286046997.1,N
1589924835.5,286046997.3,N
1589924855.3,286046997.9,N
1589924875.1,286046997.2,N
1589924895.9,286046995.3,Y
1589924915.7,286046997.1,P
1589924935.6,286046996.9,P
1589924955.4,286046999.5,N
1589924975.2,286046999.0,N
1589924995.1,286046998.2,N
1589924996.0,286046998.2,N
1589925015.8,286046998.1,N
1589925035.6,286046998.8,N
1589925055.5,286046996.9,Y
1589925075.3,286047001.0,P
1589925095.2,286047001.0,N
1589925115.9,286047001.2,N
1589925135.7,286047000.5,N
1589925155.6,286046999.9,N
1589925175.4,286047004.2,Y
1589925195.3,286047002.5,P
1589925215.1,286047001.2,N
1589925216.0,286047001.2,N
1589925235.8,286046998.5,N
1589925255.7,286046998.5,N
1589925275.5,286047000.9,N
1589925295.3,286047001.1,N
1589925315.2,286046998.2,N
1589925335.0,286047000.3,N
1589925335.9,286047000.3,N
1589925355.8,286047000.9,N
1589925375.6,286047000.2,N
1589925395.4,286046998.5,N
1589925415.3,286047000.5,N
1589925435.1,286047000.3,N
1589925455.8,286046999.8,N
1589925475.7,286046998.5,N
1589925495.5,286046998.1,N
1589925515.4,286046998.4,N
1589925535.2,286046998.2,N
1589925555.0,286046999.0,N
1589925555.9,286046999.0,N
1589925575.8,286046998.3,N
1589925595.6,286047000.8,N
